Regional Weather Roundup
Issued by NWS

Home | Current Version | Previous Version | Graphics & Text | Print | Product List | Glossary On
Versions: 1 2 3 4 5 6 7 8 9 10 11 12 13 14 15 16 17 18 19 20 21 22 23 24 25 26 27 28 29 30 31 32 33 34 35 36 37 38 39 40 41 42 43 44 45 46 47 48 49 50
000
ASUS43 KIND 211009
RWRIN

WEATHER ROUNDUP FOR INDIANA
NATIONAL WEATHER SERVICE INDIANAPOLIS IN
500 AM EST TUE FEB 21 2017

NOTE: "FAIR" INDICATES FEW OR NO CLOUDS BELOW 12,000 FEET WITH NO
SIGNIFICANT WEATHER AND/OR OBSTRUCTIONS TO VISIBILITY.

* - STATION DOES NOT REPORT WEATHER SUCH AS PRECIPITATION OR FOG.

+ - STATION NOT QUALITY CONTROLLED BY THE NATIONAL WEATHER SERVICE.
    USE DATA WITH CAUTION...ESPECIALLY DEWPOINT AND RELATIVE
    HUMIDITY OBSERVATIONS.

INZ001>003-010>013-019-020-211100-
NORTHWEST INDIANA

CITY           SKY/WX    TMP DP  RH WIND       PRES   REMARKS
KNOX *+        CLOUDY    54  28  37 S9        29.93F
LA PORTE +     LGT RAIN  53  46  79 S3        29.94S
MICHIGAN CITY+ CLOUDY    55  46  71 S9        29.94S
MONTICELLO +   CLOUDY    53  46  77 CALM      29.94S
RENSSELAER +   CLOUDY    54  48  82 W5        29.95R
VALPARAISO     CLOUDY    55  48  77 S7        29.94S

$$

LMZ046-743>745-211100-
SOUTHERN LAKE MICHIGAN

STATION/POSITION TIME  TEMP    WIND        PRES    WAVE
                       AIR SEA DIR/SP/G            HT
                 (UTC) (F)     (DEG/KT/KT) (MB)    (FT)
BURNS HARBOR     0940   55     190/ 12/ 16 1013.5F
MICHIGAN CITY    0940   57     160/ 16/ 20   N/A

$$

INZ004-005-014>016-021>024-211100-
NORTH CENTRAL INDIANA

CITY           SKY/WX    TMP DP  RH WIND       PRES   REMARKS
GOSHEN         CLOUDY    50  40  68 SE5       29.95S
LOGANSPORT +   CLOUDY    50  45  81 SE6       29.96S
PERU/GRISSOM   CLOUDY    51  46  82 S7        29.94F
ROCHESTER +    CLOUDY    54  45  71 S7        29.96S
SOUTH BEND     CLOUDY    53  44  71 S6        29.95F
WARSAW +       CLOUDY    52  41  66 S3        29.95F

$$

INZ006>009-017-018-025>027-211100-
NORTHEAST INDIANA

CITY           SKY/WX    TMP DP  RH WIND       PRES   REMARKS
ANGOLA *+      CLEAR     43  37  81 S6        29.97S
AUBURN +       CLOUDY    39  36  87 CALM      29.98F
FORT WAYNE     CLOUDY    47  40  76 S3        29.98S
HUNTINGTON +   PTCLDY    45  41  85 CALM      29.97S
KENDALLVILLE + CLOUDY    44  38  80 SE6       29.97S

$$

INZ028-029-035-036-043>045-051>053-211100-
WEST CENTRAL INDIANA

CITY           SKY/WX    TMP DP  RH WIND       PRES   REMARKS
GREENCASTLE +  CLOUDY    50  43  76 CALM      29.97S
LAFAYETTE      CLOUDY    55  47  74 CALM      29.94S
TERRE HAUTE    CLOUDY    51  44  77 SE5       29.96S

$$

INZ030>032-037>040-046>048-054>057-064-065-211100-
CENTRAL INDIANA

CITY           SKY/WX    TMP DP  RH WIND       PRES   REMARKS
FISHERS *+     CLOUDY    50  46  87 S3        29.98
FRANKFORT +    MOCLDY    55  48  78 S6        29.96S
GREENWOOD *+   MOCLDY    53  46  79 S6        29.98R
INDIANAPOLIS   CLOUDY    55  45  68 SE6       29.97S
-EAGLE CREEK   CLOUDY    54  44  69 SE5       29.96F
KOKOMO +       CLOUDY    51  44  77 S6        29.97F
MARION +       CLOUDY    48  40  76 S3        29.98S
MT COMFORT *+  CLOUDY    52  43  71 S7        29.99R
SHELBYVILLE    CLOUDY    52  43  71 SE8       29.98S
ZIONSVILLE +   MOCLDY    52  45  76 S5        29.98R

$$

INZ033-034-041-042-049-050-058-059-211100-
EAST CENTRAL INDIANA

CITY           SKY/WX    TMP DP  RH WIND       PRES   REMARKS
MUNCIE         CLOUDY    55  40  56 S8        29.98S

$$

INZ060-061-067>069-081>083-085>088-211100-
SOUTHWEST INDIANA

CITY           SKY/WX    TMP DP  RH WIND       PRES   REMARKS
EVANSVILLE     CLOUDY    55  46  71 CALM      29.96S
HUNTINGBURG *+ CLOUDY    57  45  64 S6        29.99R
WASHINGTON +   PTCLDY    53  43  70 S8        29.96S

$$

INZ062-063-066-070>080-084-089>092-211100-
SOUTH CENTRAL AND SOUTHEAST INDIANA

CITY           SKY/WX    TMP DP  RH WIND       PRES   REMARKS
BLOOMINGTON    PTCLDY    53  43  68 S5        29.97S
MADISON *+     CLOUDY    52  41  66 SE3       30.02S
NORTH VERNON + MOCLDY    55  41  58 SE3       30.00S

$$




USA.gov is the U.S. government's official web portal to all federal, state and local government web resources and services.